CSN3485 ZGGG-ZUCK

Flight info

Callsign CSN3485
Flight time N/A
Altitude 40100
Route AGVIL9 AGVIL W24 OSNOV G586 QP B330 ELKAL W179 SUMUN W3 ASIPO W678 SEGDA SEGDE1
Aircraft A359/H-SADE2E3FGHIJ1J2J3J4J5LM1OP2RVWYZ/LB1D1

Departure

Time N/A
Airport Guangzhou Baiyun International Airport (ZGGG)

Arrival

Time 2026-05-09 06:45
Airport Chongqing Jiangbei International Airport (ZUCK)
Time Latitude Longitude Altitude Speed Heading
2026-05-09 06:06 26.48945 107.48263 40301 ft 415 kts 292°
2026-05-09 06:06 26.50164 107.45386 40306 ft 415 kts 291°
2026-05-09 06:07 26.52625 107.39566 40307 ft 414 kts 291°
2026-05-09 06:07 26.55080 107.33755 40308 ft 414 kts 292°
2026-05-09 06:08 26.57542 107.27942 40309 ft 414 kts 291°
2026-05-09 06:08 26.60006 107.22119 40313 ft 414 kts 291°
2026-05-09 06:09 26.62465 107.16299 40310 ft 414 kts 291°
2026-05-09 06:09 26.64925 107.10489 40309 ft 413 kts 291°
2026-05-09 06:10 26.67390 107.04690 40307 ft 413 kts 291°
2026-05-09 06:10 26.69862 106.98869 40302 ft 414 kts 291°
2026-05-09 06:11 26.72327 106.93053 40302 ft 414 kts 291°
2026-05-09 06:11 26.75029 106.87405 40305 ft 418 kts 299°
2026-05-09 06:12 26.78939 106.82500 40307 ft 430 kts 313°
2026-05-09 06:12 26.84132 106.78945 40314 ft 449 kts 329°
2026-05-09 06:13 26.87131 106.77841 40319 ft 460 kts 337°
2026-05-09 06:13 26.90335 106.77267 40323 ft 473 kts 346°
2026-05-09 06:13 26.96950 106.76927 40319 ft 477 kts 348°
2026-05-09 06:14 27.03592 106.76674 40318 ft 478 kts 348°
2026-05-09 06:14 27.10232 106.76386 40316 ft 477 kts 348°
2026-05-09 06:15 27.16861 106.76055 40312 ft 477 kts 347°
2026-05-09 06:15 27.23452 106.75710 40312 ft 477 kts 347°
2026-05-09 06:16 27.30082 106.75362 40312 ft 477 kts 347°
2026-05-09 06:16 27.36711 106.75015 40315 ft 477 kts 347°
2026-05-09 06:17 27.43378 106.74862 40313 ft 481 kts 350°
2026-05-09 06:17 27.50080 106.74940 40308 ft 482 kts 351°
2026-05-09 06:18 27.53417 106.74983 40001 ft 476 kts 350°
2026-05-09 06:18 27.56693 106.75021 39044 ft 468 kts 349°
2026-05-09 06:18 27.59944 106.75039 37805 ft 466 kts 349°
2026-05-09 06:18 27.63186 106.75042 37199 ft 466 kts 349°
2026-05-09 06:19 27.66432 106.75038 36555 ft 466 kts 349°
2026-05-09 06:19 27.69683 106.75032 35869 ft 469 kts 349°
2026-05-09 06:19 27.72951 106.75026 35154 ft 472 kts 349°
2026-05-09 06:19 27.76257 106.75020 34346 ft 477 kts 349°
2026-05-09 06:20 27.79596 106.75014 33425 ft 483 kts 349°
2026-05-09 06:20 27.82973 106.75011 32534 ft 487 kts 350°
2026-05-09 06:20 27.86378 106.75012 31641 ft 491 kts 351°
2026-05-09 06:20 27.89757 106.75015 30725 ft 494 kts 351°
2026-05-09 06:21 27.93216 106.75017 29665 ft 499 kts 351°
2026-05-09 06:21 27.96698 106.75019 28765 ft 500 kts 352°
2026-05-09 06:21 28.00164 106.75028 28068 ft 495 kts 352°
2026-05-09 06:21 28.03594 106.75039 27371 ft 491 kts 352°
2026-05-09 06:22 28.07000 106.75048 26678 ft 487 kts 352°
2026-05-09 06:22 28.10376 106.75054 25968 ft 484 kts 353°
2026-05-09 06:22 28.13733 106.75059 25277 ft 481 kts 353°
2026-05-09 06:22 28.17063 106.75061 24585 ft 478 kts 353°
2026-05-09 06:23 28.20381 106.75067 23863 ft 475 kts 353°
2026-05-09 06:23 28.23682 106.75073 23066 ft 472 kts 354°
2026-05-09 06:23 28.26942 106.75078 22360 ft 466 kts 354°
2026-05-09 06:23 28.30165 106.75077 21670 ft 459 kts 354°
2026-05-09 06:24 28.33317 106.74808 20966 ft 450 kts 348°
2026-05-09 06:24 28.36378 106.74405 20657 ft 437 kts 348°
2026-05-09 06:24 28.39375 106.73982 20130 ft 431 kts 348°
2026-05-09 06:24 28.42340 106.73553 19475 ft 428 kts 348°
2026-05-09 06:25 28.45277 106.73123 18823 ft 424 kts 348°
2026-05-09 06:25 28.48189 106.72693 18122 ft 420 kts 348°
2026-05-09 06:25 28.51033 106.72275 17428 ft 416 kts 348°
2026-05-09 06:25 28.53891 106.71857 16760 ft 412 kts 348°
2026-05-09 06:26 28.56728 106.71440 16096 ft 408 kts 348°
2026-05-09 06:26 28.58852 106.71123 15590 ft 406 kts 348°
2026-05-09 06:26 28.61409 106.70738 14992 ft 402 kts 348°
2026-05-09 06:26 28.64176 106.70328 14335 ft 399 kts 349°
2026-05-09 06:27 28.66922 106.69922 13682 ft 396 kts 349°
2026-05-09 06:27 28.69622 106.69523 13149 ft 388 kts 349°
2026-05-09 06:27 28.72308 106.69371 12495 ft 388 kts
2026-05-09 06:27 28.74991 106.69686 11820 ft 386 kts
2026-05-09 06:28 28.77635 106.70102 11183 ft 382 kts
2026-05-09 06:28 28.80211 106.70513 11001 ft 365 kts
2026-05-09 06:28 28.82668 106.70904 10839 ft 349 kts
2026-05-09 06:28 28.84463 106.71190 10709 ft 337 kts
2026-05-09 06:29 28.86737 106.71542 10559 ft 323 kts
2026-05-09 06:29 28.88919 106.71875 10417 ft 310 kts
2026-05-09 06:29 28.91021 106.72195 10263 ft 298 kts
2026-05-09 06:29 28.93040 106.72504 10132 ft 287 kts
2026-05-09 06:30 28.94987 106.72801 9999 ft 277 kts
2026-05-09 06:30 28.96861 106.73087 9853 ft 267 kts
2026-05-09 06:30 28.98691 106.73368 9568 ft 264 kts
2026-05-09 06:30 29.00509 106.73644 9295 ft 263 kts
2026-05-09 06:31 29.02318 106.73905 9020 ft 261 kts
2026-05-09 06:31 29.04116 106.73805 8811 ft 257 kts 348°
2026-05-09 06:31 29.05867 106.73395 8699 ft 257 kts 346°
2026-05-09 06:31 29.07585 106.72952 8585 ft 257 kts 346°
2026-05-09 06:32 29.09332 106.72504 8467 ft 257 kts 346°
2026-05-09 06:32 29.11076 106.72061 8337 ft 257 kts 346°
2026-05-09 06:32 29.12819 106.71624 8217 ft 256 kts 346°
2026-05-09 06:33 29.16290 106.70760 7978 ft 254 kts 346°
2026-05-09 06:33 29.18019 106.70325 7845 ft 254 kts 346°
2026-05-09 06:33 29.19744 106.69888 7730 ft 254 kts 346°
2026-05-09 06:34 29.23188 106.69019 7476 ft 253 kts 346°
2026-05-09 06:34 29.24906 106.68585 7363 ft 253 kts 346°
2026-05-09 06:34 29.26620 106.68155 7234 ft 252 kts 347°
2026-05-09 06:34 29.28330 106.67728 7120 ft 251 kts 347°
2026-05-09 06:35 29.30036 106.67298 6989 ft 251 kts 347°
2026-05-09 06:35 29.31718 106.66875 6882 ft 242 kts 347°
2026-05-09 06:35 29.33329 106.66475 6777 ft 232 kts 347°
2026-05-09 06:35 29.34830 106.65914 6633 ft 223 kts 330°
2026-05-09 06:36 29.35892 106.64696 6530 ft 215 kts 297°
2026-05-09 06:36 29.36427 106.63099 6432 ft 215 kts 287°
2026-05-09 06:36 29.36843 106.61452 6325 ft 215 kts 286°
2026-05-09 06:36 29.37254 106.59798 6213 ft 215 kts 287°
2026-05-09 06:37 29.37677 106.58148 6112 ft 216 kts 287°
2026-05-09 06:37 29.38102 106.56502 6017 ft 214 kts 287°
2026-05-09 06:37 29.38572 106.54928 5916 ft 205 kts 296°
2026-05-09 06:37 29.39492 106.53748 5780 ft 198 kts 330°
2026-05-09 06:38 29.40346 106.53437 5743 ft 195 kts 354°
2026-05-09 06:38 29.41686 106.53642 5733 ft 196 kts 14°
2026-05-09 06:38 29.43001 106.54104 5682 ft 199 kts 16°
2026-05-09 06:38 29.44314 106.54604 5626 ft 199 kts 16°
2026-05-09 06:39 29.45634 106.55075 5556 ft 198 kts 15°
2026-05-09 06:39 29.46955 106.55534 5465 ft 198 kts 15°
2026-05-09 06:39 29.48272 106.55988 5317 ft 198 kts 15°
2026-05-09 06:39 29.49591 106.56439 5151 ft 198 kts 15°
2026-05-09 06:40 29.50907 106.56891 5007 ft 197 kts 15°
2026-05-09 06:40 29.52224 106.57343 4902 ft 197 kts 15°
2026-05-09 06:40 29.53524 106.57791 4804 ft 191 kts 16°
2026-05-09 06:40 29.54788 106.58231 4598 ft 189 kts 15°
2026-05-09 06:41 29.56027 106.58659 4342 ft 187 kts 15°
2026-05-09 06:41 29.57263 106.59086 4103 ft 185 kts 15°
2026-05-09 06:41 29.58492 106.59512 3843 ft 182 kts 15°
2026-05-09 06:41 29.59680 106.59925 3599 ft 175 kts 15°
2026-05-09 06:42 29.60824 106.60320 3398 ft 171 kts 16°
2026-05-09 06:42 29.61946 106.60708 3151 ft 165 kts 15°
2026-05-09 06:42 29.63014 106.61078 2962 ft 157 kts 15°
2026-05-09 06:42 29.64052 106.61437 2740 ft 154 kts 15°
2026-05-09 06:43 29.65052 106.61783 2549 ft 147 kts 15°
2026-05-09 06:43 29.66007 106.62115 2372 ft 141 kts 15°
2026-05-09 06:43 29.66943 106.62438 2161 ft 139 kts 16°
2026-05-09 06:43 29.67871 106.62760 1963 ft 140 kts 16°
2026-05-09 06:44 29.68800 106.63081 1760 ft 140 kts 16°
2026-05-09 06:44 29.69732 106.63397 1537 ft 139 kts 16°
2026-05-09 06:44 29.70660 106.63721 1371 ft 139 kts 17°
2026-05-09 06:44 29.71525 106.64019 1352 ft 113 kts 17°
2026-05-09 06:45 29.72129 106.64227 1356 ft 68 kts 17°
2026-05-09 06:45 29.72441 106.64334 1355 ft 29 kts 17°
2026-05-09 06:45 29.72640 106.64376 1354 ft 27 kts 359°
2026-05-09 06:45 29.72776 106.64355 1353 ft 14 kts 347°
2026-05-09 06:46 29.72845 106.64318 1354 ft 8 kts 310°
2026-05-09 06:46 29.72847 106.64271 1354 ft 5 kts 245°
2026-05-09 06:46 29.72813 106.64247 1352 ft 5 kts 201°
2026-05-09 06:46 29.72782 106.64234 1353 ft 6 kts 199°
2026-05-09 06:47 29.72742 106.64220 1355 ft 5 kts 197°
2026-05-09 06:47 29.72724 106.64214 1356 ft 0 kts 197°
2026-05-09 06:50 29.72724 106.64213 1356 ft 0 kts 197°
2026-05-09 06:50 29.72711 106.64209 1356 ft 7 kts 197°
2026-05-09 06:51 29.72627 106.64179 1356 ft 19 kts 197°
2026-05-09 06:51 29.72500 106.64134 1355 ft 18 kts 197°
2026-05-09 06:51 29.72399 106.64098 1357 ft 12 kts 197°
2026-05-09 06:51 29.72334 106.64075 1359 ft 7 kts 196°
2026-05-09 06:52 29.72294 106.64060 1360 ft 6 kts 206°
2026-05-09 06:52 29.72279 106.64012 1360 ft 6 kts 269°
2026-05-09 06:52 29.72264 106.63976 1362 ft 6 kts 231°
2026-05-09 06:52 29.72252 106.63916 1363 ft 10 kts 271°
2026-05-09 06:53 29.72271 106.63844 1362 ft 7 kts 288°
2026-05-09 06:53 29.72282 106.63805 1363 ft 3 kts 288°
2026-05-09 06:53 29.72283 106.63801 1363 ft 0 kts 288°
2026-05-09 06:54 29.72283 106.63799 1364 ft 1 kts 288°
2026-05-09 06:54 29.72287 106.63776 1363 ft 5 kts 275°
2026-05-09 06:54 29.72264 106.63733 1365 ft 7 kts 216°
2026-05-09 06:54 29.72235 106.63721 1366 ft 1 kts 198°
2026-05-09 06:55 29.72234 106.63721 1366 ft 0 kts 198°